This is the latest recevied weather packets stored in our database for station/object W3AJR. If no packets are shown the sender has not sent any weather packets the latest 10 day(s).
| Time | Temp. | Humidity | Pressure | Rain* | Wind** | Luminosity | Snow |
|---|---|---|---|---|---|---|---|
| 1777851765 | 14.44° C | 37% | 1013.8 hPa | 0 mm | - | 11 W/m² | - |
| 1777851462 | 15° C | 36% | 1013.9 hPa | 0 mm | - | 14 W/m² | - |
| 1777851158 | 15.56° C | 37% | 1013.7 hPa | 0 mm | - | 16 W/m² | - |
| 1777850855 | 15.56° C | 33% | 1013.7 hPa | 0 mm | - | 18 W/m² | - |
| 1777850552 | 16.11° C | 33% | 1014 hPa | 0 mm | - | 21 W/m² | - |
| 1777850250 | 16.67° C | 32% | 1013.8 hPa | 0 mm | - | 23 W/m² | - |
| 1777849947 | 16.67° C | 30% | 1013.8 hPa | 0 mm | - | 25 W/m² | - |
| 1777849643 | 17.22° C | 30% | 1013.6 hPa | 0 mm | - | 27 W/m² | - |
| 1777849340 | 17.78° C | 29% | 1013.7 hPa | 0 mm | - | 32 W/m² | - |
| 1777849038 | 17.78° C | 27% | 1013.7 hPa | 0 mm | - | 72 W/m² | - |
| 1777848738 | 17.78° C | 28% | 1013.6 hPa | 0 mm | - | 83 W/m² | - |
| 1777848435 | 17.78° C | 26% | 1013.5 hPa | 0 mm | - | 99 W/m² | - |
| 1777848133 | 18.33° C | 26% | 1013.6 hPa | 0 mm | - | 99 W/m² | - |
| 1777847830 | 18.33° C | 26% | 1013.7 hPa | 0 mm | - | 119 W/m² | - |
| 1777847527 | 17.78° C | 26% | 1013.9 hPa | 0 mm | - | 137 W/m² | - |
| 1777847224 | 17.78° C | 26% | 1013.8 hPa | 0 mm | - | 141 W/m² | - |
| 1777846922 | 17.78° C | 27% | 1013.8 hPa | 0 mm | - | 145 W/m² | - |
| 1777846620 | 17.78° C | 27% | 1013.7 hPa | 0 mm | - | 41 W/m² | - |
| 1777846317 | 17.78° C | 28% | 1013.9 hPa | 0 mm | - | 41 W/m² | - |
| 1777846014 | 17.22° C | 27% | 1013.7 hPa | 0 mm | - | 42 W/m² | - |
| 1777845710 | 17.78° C | 27% | 1013.8 hPa | 0 mm | - | 43 W/m² | - |
| 1777845407 | 17.22° C | 29% | 1013.9 hPa | 0 mm | - | 43 W/m² | - |
| 1777845104 | 17.78° C | 26% | 1013.9 hPa | 0 mm | - | 44 W/m² | - |
| 1777844803 | 17.22° C | 27% | 1014.1 hPa | 0 mm | - | 46 W/m² | - |
| 1777844498 | 17.78° C | 29% | 1013.7 hPa | 0 mm | - | 45 W/m² | - |
* Rain latest hour (hover to see other rain measurements)
** Current wind speed in m/s (hover to see current wind gust speed)